Total_Precipitation_Accumulation
0.42 0.32 0.38 0.36 0.32 0.34 0.38 0.51 0.56 0.53 0.49 0.48 0.49 0.52 0.52 0.51 0.50 0.46 0.47 0.57 0.67 0.81 0.98 1.22 1.30 1.35 1.34 1.41 1.48 1.50 1.61 1.61 1.78 2.04 2.33 2.42 2.45 2.31 2.24 2.47 2.54 2.27 2.28
0.33 0.30 0.31 0.28 0.27 0.31 0.40 0.52 0.52 0.53 0.52 0.51 0.49 0.54 0.58 0.58 0.53 0.47 0.49 0.61 0.79 0.93 1.04 1.21 1.31 1.30 1.32 1.38 1.49 1.61 1.75 1.69 1.83 2.26 2.60 2.67 2.79 2.63 2.49 2.50 2.53 2.60 2.40
0.42 0.41 0.27 0.28 0.28 0.31 0.42 0.50 0.54 0.53 0.52 0.49 0.48 0.49 0.54 0.54 0.58 0.60 0.63 0.78 0.97 1.16 1.21 1.24 1.35 1.37 1.33 1.40 1.54 1.66 1.73 1.79 2.12 2.59 3.05 2.80 2.67 2.66 2.57 2.60 2.38 2.20 2.10
0.38 0.39 0.27 0.30 0.35 0.36 0.41 0.48 0.59 0.56 0.55 0.52 0.50 0.49 0.54 0.57 0.64 0.75 0.85 0.97 1.10 1.26 1.37 1.53 1.72 1.62 1.42 1.36 1.39 1.51 1.73 1.92 2.38 2.87 3.32 3.00 2.68 3.01 2.97 2.70 2.42 2.15 2.05
0.30 0.32 0.36 0.39 0.41 0.44 0.44 0.46 0.55 0.62 0.64 0.66 0.66 0.60 0.61 0.64 0.68 0.72 0.84 0.97 1.02 1.09 1.24 1.35 1.48 1.54 1.39 1.29 1.31 1.47 1.75 2.01 2.51 3.01 3.45 3.25 3.12 3.47 3.18 2.77 2.56 2.21 2.03
0.36 0.30 0.37 0.46 0.45 0.48 0.50 0.51 0.53 0.59 0.70 0.79 0.86 0.81 0.77 0.78 0.79 0.82 0.91 0.93 1.00 1.03 1.10 1.20 1.31 1.40 1.40 1.31 1.33 1.56 1.85 2.12 2.35 2.78 3.45 3.24 3.07 3.34 3.10 2.93 2.68 2.31 2.13
0.55 0.51 0.45 0.49 0.50 0.54 0.57 0.60 0.67 0.68 0.77 0.88 0.95 1.00 0.98 0.93 0.87 0.92 1.02 0.97 0.97 1.02 1.07 1.05 1.08 1.16 1.37 1.42 1.37 1.51 1.97 2.39 2.34 2.97 3.40 3.23 3.28 3.24 3.12 3.11 2.90 2.52 2.24
0.71 0.67 0.67 0.61 0.54 0.60 0.69 0.69 0.76 0.84 0.88 0.97 1.05 1.16 1.11 1.00 0.94 0.97 1.05 1.11 1.14 1.16 1.16 1.04 1.00 1.05 1.22 1.39 1.31 1.45 1.79 2.08 2.05 2.70 3.22 3.03 2.98 3.03 3.07 3.12 2.80 2.49 2.27
0.93 0.91 0.92 0.75 0.70 0.75 0.87 0.86 0.87 0.91 0.96 1.07 1.22 1.33 1.26 1.13 1.08 1.07 1.11 1.19 1.26 1.25 1.24 1.17 1.14 1.12 1.15 1.29 1.36 1.52 1.81 2.10 2.15 2.45 2.69 3.01 2.93 3.30 3.20 2.97 2.70 2.32 2.11
1.28 1.26 1.19 1.18 1.13 1.02 1.05 1.18 1.13 1.10 1.09 1.08 1.16 1.34 1.36 1.22 1.13 1.18 1.15 1.25 1.33 1.36 1.35 1.35 1.41 1.38 1.31 1.30 1.40 1.51 1.84 1.99 1.80 2.15 2.79 2.83 2.89 3.44 3.52 3.01 2.66 2.40 2.20
1.67 1.62 1.41 1.46 1.47 1.33 1.30 1.25 1.38 1.35 1.29 1.23 1.24 1.32 1.32 1.35 1.39 1.42 1.36 1.57 1.56 1.63 1.73 1.73 1.66 1.58 1.55 1.48 1.51 1.61 1.76 1.74 1.88 2.39 2.76 2.66 2.89 3.40 3.69 3.42 2.90 2.61 2.37
1.84 1.78 1.70 1.58 1.51 1.47 1.38 1.46 1.60 1.56 1.56 1.44 1.60 1.56 1.63 1.96 2.10 1.82 2.01 2.17 2.17 2.16 2.19 2.11 2.00 1.90 1.74 1.44 1.56 1.74 1.50 1.63 2.14 2.54 2.47 2.52 2.84 3.36 3.77 3.70 3.32 2.95 2.72
2.19 2.01 2.05 1.92 1.76 1.93 2.00 1.89 1.88 1.93 2.04 1.91 2.04 2.08 2.19 2.37 2.38 2.34 2.44 2.39 2.47 2.55 2.47 2.40 2.18 1.89 1.72 1.61 1.68 1.75 1.53 1.54 1.88 2.11 2.30 2.50 2.77 3.34 3.74 3.65 3.52 3.46 3.26
2.84 2.64 2.51 2.49 2.35 2.45 2.69 2.49 2.19 2.09 2.18 2.23 2.44 2.35 2.65 2.79 2.75 2.71 2.76 2.68 2.68 2.75 2.83 2.62 2.46 2.27 2.14 1.95 1.80 1.81 1.75 1.70 1.87 2.12 2.36 2.44 2.55 3.15 3.66 3.69 3.62 3.63 3.69
3.04 3.16 2.90 2.84 2.78 2.95 3.14 3.00 2.75 2.68 2.46 2.41 2.71 2.76 2.90 3.04 3.01 3.07 3.01 2.99 2.80 2.78 2.80 2.70 2.53 2.55 2.46 2.21 1.96 1.95 2.03 1.98 2.07 2.32 2.35 2.48 2.52 2.90 3.47 3.77 3.76 3.77 3.93
2.90 3.15 3.28 3.27 3.19 3.03 3.13 3.14 2.92 2.68 2.78 2.66 2.68 2.81 2.83 3.03 3.30 3.35 3.31 3.28 3.21 3.12 3.16 2.96 2.78 2.93 2.80 2.67 2.46 2.33 2.23 2.31 2.30 2.37 2.55 2.65 2.57 2.61 3.03 3.47 3.72 3.91 4.11
2.81 2.91 3.06 3.22 3.39 3.23 3.20 3.22 3.05 2.85 2.85 2.93 3.01 3.19 3.03 3.01 3.33 3.47 3.62 3.56 3.55 3.48 3.48 3.39 3.31 3.38 3.06 2.88 2.69 2.55 2.51 2.61 2.59 2.52 2.66 2.80 2.68 2.73 2.80 2.94 3.16 3.41 3.74
2.41 2.70 2.93 3.12 3.34 3.53 3.56 3.66 3.43 3.43 3.44 3.38 3.24 3.25 3.17 3.17 3.38 3.71 3.83 3.86 3.92 3.84 3.90 3.95 3.83 3.66 3.52 3.27 3.04 2.69 2.58 2.76 2.78 2.76 2.76 2.79 2.96 2.85 2.84 2.75 2.80 2.92 3.24
2.12 2.61 2.96 3.31 3.69 3.90 4.07 4.29 4.21 4.24 4.05 3.89 3.80 3.67 3.73 3.86 3.88 4.05 4.15 4.23 4.29 4.33 4.34 4.14 4.28 4.05 3.97 3.78 3.31 3.00 2.70 2.64 2.67 2.61 2.72 2.64 2.76 2.83 2.92 2.86 2.81 2.82 3.04
2.27 2.67 3.07 3.36 3.94 4.45 4.52 4.70 4.78 4.96 4.89 4.77 4.76 4.57 4.33 4.44 4.55 4.71 4.60 4.63 4.68 4.77 4.65 4.64 4.72 4.48 4.16 4.10 3.61 3.31 3.04 2.74 2.70 2.69 2.69 2.77 2.69 2.50 2.68 2.83 2.98 2.80 2.99
2.91 3.07 3.31 3.56 3.92 4.20 4.58 4.89 5.10 5.30 5.52 5.59 5.49 5.40 5.37 5.37 5.51 5.59 5.32 5.30 5.19 5.06 4.84 4.80 4.70 4.48 4.20 4.18 4.07 3.63 3.03 2.63 2.52 2.41 2.43 2.64 2.65 2.53 2.60 2.74 2.79 2.71 2.60
3.31 3.38 3.59 3.94 4.27 4.44 4.81 5.32 5.79 5.99 6.12 6.12 6.09 6.19 6.21 6.21 6.37 6.42 6.40 6.12 5.90 5.62 5.11 4.76 4.64 4.41 4.04 4.16 4.22 4.19 3.48 2.99 2.48 2.03 2.10 2.15 2.23 2.47 2.44 2.42 2.56 2.68 2.56
3.28 3.41 3.58 4.09 4.57 5.04 5.45 6.00 6.48 6.79 6.81 6.65 6.33 6.41 6.52 6.35 6.42 6.61 6.59 6.36 6.00 5.44 4.87 4.71 4.68 4.53 4.25 4.18 4.13 4.37 3.79 3.23 2.79 2.30 1.99 1.88 2.02 2.17 2.19 2.22 2.27 2.37 2.36
3.13 3.40 3.65 4.08 4.77 5.30 5.60 6.22 6.88 7.11 7.30 7.33 7.08 6.75 6.54 6.29 6.16 6.10 5.94 5.54 5.17 4.82 4.51 4.35 4.41 4.32 4.31 4.10 4.02 3.76 3.51 3.21 2.98 2.61 2.14 1.91 1.96 2.02 2.04 2.00 2.05 2.25 2.34
3.01 3.13 3.38 3.96 4.62 5.36 5.98 6.48 7.07 7.55 7.74 7.64 7.19 6.72 6.18 5.82 5.37 4.93 4.58 4.38 4.31 4.17 3.97 3.83 3.84 3.75 3.58 3.48 3.49 3.48 3.44 3.17 2.85 2.67 2.39 2.17 2.12 1.94 1.93 2.02 2.09 2.23 2.39
2.69 2.94 3.24 3.68 4.40 5.13 5.73 6.30 6.78 7.18 7.29 6.97 6.42 5.88 5.52 5.12 4.58 4.02 3.73 3.54 3.43 3.28 3.09 2.99 2.99 3.01 3.11 3.17 3.27 3.29 3.25 3.18 2.97 2.93 2.74 2.50 2.36 2.20 2.09 2.08 2.10 2.22 2.42